Helicity
38 77 76 101 144 138 157 203 118 107 198 154 102 110 131 166 116 71 53 33 126 112 62 36 39 39 35 29 22 21 36 45 34 36 27 17 10 2 -1 -4 -7 13 42 29 26 27 24 23 35
33 71 59 96 162 184 190 143 169 66 70 129 141 135 143 157 91 48 74 57 91 113 62 18 36 61 60 41 37 18 29 39 35 38 21 6 -1 -2 6 4 14 47 53 32 28 25 20 15 17
33 38 103 114 133 143 181 98 89 101 100 110 116 93 134 158 43 10 72 101 61 92 63 50 75 75 58 38 25 24 23 -3 15 19 6 9 7 22 17 21 57 69 53 34 29 22 14 10 7
39 76 94 168 183 65 109 227 92 129 133 107 88 142 133 126 79 19 129 102 60 92 94 79 84 72 55 31 21 31 35 2 7 11 3 14 28 38 48 59 66 65 39 32 32 22 11 4 0
67 109 164 210 157 47 30 38 35 84 59 87 93 148 139 96 42 49 104 108 116 91 90 91 81 64 31 35 45 39 44 15 10 17 12 19 33 34 39 51 58 41 32 32 30 21 14 4 -2
184 174 173 221 178 40 108 49 81 53 76 93 83 145 141 68 75 37 80 144 128 111 94 77 75 55 65 67 58 53 39 43 30 14 12 21 37 37 39 41 40 32 31 31 27 20 12 5 -3
150 167 157 162 155 143 65 35 62 101 114 101 57 154 117 153 125 111 80 92 112 93 86 87 93 82 75 73 69 70 43 54 47 30 18 22 44 40 35 37 36 33 32 31 28 22 15 11 3
273 173 98 123 145 171 141 38 54 105 109 92 64 124 104 63 103 128 242 103 88 48 49 82 99 95 81 66 87 85 73 74 79 49 39 42 54 63 37 32 35 42 40 39 32 30 26 19 13
266 236 127 97 161 57 113 105 180 136 168 139 70 74 82 68 86 149 196 203 69 43 38 50 67 75 77 86 79 83 76 81 79 61 52 45 32 34 31 35 50 51 48 49 46 44 41 35 28
230 257 102 82 -63 115 23 123 250 142 143 157 125 92 85 82 84 118 137 150 131 76 45 38 37 41 48 86 100 106 96 92 83 68 57 41 27 29 29 16 42 53 55 59 59 56 56 55 40
182 55 98 31 47 32 67 71 92 104 127 133 56 45 69 64 72 70 81 89 94 93 106 71 39 11 44 62 88 105 118 102 79 66 65 37 34 31 47 58 49 47 49 53 76 73 63 62 68
175 78 3 98 61 16 88 24 134 70 96 65 92 74 65 53 37 48 50 54 53 75 98 134 104 50 82 101 111 86 94 75 75 63 54 35 40 62 84 85 79 87 78 78 75 73 64 65 64
144 95 120 41 84 13 90 86 157 97 104 78 205 217 122 56 57 56 44 57 63 78 77 86 138 150 107 162 109 117 87 83 60 82 42 27 85 104 113 89 95 82 100 104 90 76 77 74 81
124 173 222 113 66 108 63 138 175 172 125 90 90 117 159 147 105 73 76 60 98 58 65 63 103 112 134 104 116 110 133 92 73 64 93 21 88 122 134 134 119 101 88 93 100 108 93 88 96
200 171 269 289 115 101 106 155 73 154 208 168 112 86 81 100 109 102 61 43 72 109 110 62 49 89 122 131 94 89 82 113 87 75 115 112 97 129 151 140 156 128 113 87 121 99 119 117 120
232 220 234 259 145 91 96 22 24 59 109 123 134 119 79 67 57 62 72 92 79 73 129 113 106 81 61 118 120 88 111 126 115 129 130 122 135 142 153 175 173 157 144 155 173 166 160 179 206
232 217 240 239 152 96 108 39 59 94 77 96 86 87 72 75 87 61 67 85 166 164 149 101 105 121 78 56 69 108 106 127 138 138 129 131 142 155 171 186 172 188 192 176 191 197 243 240 242
194 172 127 225 229 154 89 97 135 169 87 78 83 71 73 68 68 82 152 191 203 238 251 228 206 150 114 81 73 122 120 109 136 142 154 156 152 180 203 188 187 204 222 212 225 244 274 260 269
151 181 101 124 162 151 81 85 103 91 119 92 84 77 87 134 166 163 186 221 215 265 280 261 246 298 295 256 226 189 160 139 129 140 132 154 208 181 198 243 221 236 243 214 221 254 285 287 333
143 110 105 107 51 120 92 109 95 79 90 81 64 72 98 118 138 179 208 229 206 185 197 202 203 204 206 198 202 212 207 213 208 167 142 143 159 168 221 215 257 254 284 273 264 277 336 362 401
150 153 116 140 242 237 171 111 94 83 67 133 135 99 103 106 126 138 171 180 162 152 141 157 184 190 151 155 159 181 213 230 202 204 184 142 116 120 143 182 210 235 280 260 288 283 317 300 422
152 123 143 188 212 154 113 93 81 93 159 171 143 104 85 101 148 151 153 131 68 89 142 171 192 208 187 154 132 117 111 128 143 136 140 153 138 112 97 125 152 208 200 209 235 260 328 416 366
137 126 145 209 174 156 139 116 79 101 220 172 125 102 107 154 166 179 143 99 95 130 143 157 173 178 173 166 153 146 135 106 99 113 113 101 106 111 100 91 112 159 191 222 234 227 222 276 272
188 279 277 226 201 119 94 101 55 100 97 197 154 141 143 142 143 123 128 150 127 129 136 138 139 135 142 139 138 131 120 116 118 124 134 117 98 118 121 102 131 147 158 144 166 155 188 204 231
143 227 253 217 190 94 130 109 77 38 89 159 171 125 88 93 119 115 119 126 110 107 100 92 100 114 129 146 159 164 160 147 147 161 169 191 191 187 236 223 151 134 133 141 145 151 142 167 195
135 150 167 172 161 113 165 81 65 58 96 130 124 85 92 112 102 100 85 84 85 73 63 64 79 101 112 131 162 188 216 200 175 167 164 172 170 176 190 205 235 200 125 116 124 147 145 127 150
214 165 137 138 150 129 117 126 132 168 218 195 147 136 95 90 78 85 87 75 66 56 52 63 87 99 120 145 165 180 186 190 183 203 188 163 152 148 154 160 178 205 188 165 161 160 131 131 122
194 169 167 168 148 134 86 82 72 144 175 198 172 110 83 87 88 90 89 71 53 48 66 92 100 103 122 143 142 129 135 134 134 130 134 132 137 124 122 129 146 172 217 227 191 187 130 124 106
206 196 139 100 116 115 91 55 53 82 169 206 123 86 75 92 101 96 81 73 77 91 106 101 109 119 134 138 128 124 116 107 96 88 93 97 90 83 79 80 109 125 163 199 167 141 141 144 165
158 96 98 93 97 94 71 79 87 68 145 148 117 89 88 106 94 78 65 85 101 115 122 104 106 118 122 119 108 93 85 86 90 95 96 97 93 76 62 58 79 97 112 132 127 164 160 150 193
Wind_Speed
43 45 44 39 42 43 49 41 36 31 32 31 29 25 22 29 34 33 16 12 21 21 24 27 30 31 33 34 37 37 36 36 35 36 37 38 39 39 38 38 37 38 40 41 42 41 40 38 34
41 42 37 41 48 52 52 49 43 28 28 29 32 31 28 30 27 15 11 19 21 22 23 26 29 27 29 31 32 34 35 36 37 36 37 38 39 38 38 38 38 38 38 40 42 41 40 39 36
39 40 43 47 52 54 43 42 31 26 27 29 36 31 31 31 18 9 5 19 20 20 18 19 21 23 25 27 29 31 34 37 39 38 38 38 40 40 39 39 39 38 39 40 41 40 40 40 39
38 41 45 60 64 63 47 41 25 26 28 28 28 25 23 35 27 13 9 20 19 18 16 16 16 20 22 24 26 28 32 35 38 38 37 37 40 41 40 39 38 37 38 39 40 40 40 40 38
44 47 61 67 72 66 50 45 29 28 30 31 29 29 27 22 11 2 8 13 16 15 15 13 14 17 19 21 22 25 27 32 35 37 35 35 36 37 38 38 37 37 37 38 38 38 38 38 37
71 54 71 80 73 65 54 45 32 33 27 29 23 27 26 16 7 4 2 9 12 14 11 11 12 12 14 15 17 19 23 27 31 33 32 32 33 33 34 34 34 34 35 36 35 35 35 35 35
74 77 79 77 70 68 56 47 35 33 33 33 30 30 24 16 15 10 5 10 12 12 10 8 9 8 11 12 14 17 19 22 25 28 28 28 29 29 29 30 30 31 32 32 32 32 33 33 32
62 69 93 81 81 75 58 50 44 42 39 34 28 34 28 21 15 12 6 3 9 10 11 9 7 6 7 9 11 12 14 17 20 22 24 24 25 26 26 25 26 27 28 28 28 29 29 30 29
50 71 84 87 82 72 54 45 44 37 40 34 29 24 18 16 19 14 7 7 4 6 9 10 6 4 5 7 8 9 11 12 14 17 19 19 20 21 22 22 23 23 23 24 24 25 26 27 27
69 85 85 74 81 65 53 50 46 44 44 33 24 14 10 15 21 21 17 14 15 8 3 5 7 7 7 5 5 6 7 9 9 11 13 14 16 18 19 18 18 18 18 18 19 21 22 24 24
71 97 79 85 95 67 49 59 52 46 53 54 37 26 22 19 20 23 25 23 17 20 18 6 2 4 4 4 4 6 7 5 5 6 8 9 11 12 14 14 14 14 14 13 14 16 18 18 21
83 88 76 72 66 71 67 54 53 40 37 30 41 26 25 28 27 25 25 26 26 25 26 22 17 4 2 2 3 5 5 3 1 2 4 6 5 5 7 8 8 8 10 9 11 13 13 13 14
88 74 78 72 62 62 68 50 49 45 31 21 20 24 27 28 31 29 25 23 25 28 29 28 26 23 11 4 4 5 3 2 1 3 5 3 2 2 1 5 9 8 9 8 10 12 14 14 17
68 68 59 64 71 61 62 60 53 48 34 34 33 35 36 35 33 32 30 29 25 24 28 31 29 25 23 14 6 7 4 4 4 1 4 9 3 3 6 9 10 10 9 11 13 13 14 14 16
51 66 60 62 61 63 55 70 76 59 54 51 49 47 44 45 46 45 37 35 33 26 21 17 17 17 20 20 17 12 13 9 5 4 3 6 8 10 10 12 14 13 12 13 14 16 19 20 18
47 54 74 62 58 54 56 81 73 70 66 65 57 56 56 54 54 53 50 46 36 35 29 23 19 16 13 17 23 18 18 24 18 13 13 11 13 15 16 18 18 18 17 17 19 23 24 23 25
57 74 80 64 59 54 59 72 65 61 70 74 67 65 63 62 59 56 54 48 46 43 33 24 16 18 19 21 19 22 19 22 25 24 21 18 17 18 19 21 22 23 25 24 25 27 30 30 31
77 74 78 74 65 57 64 71 62 56 61 66 66 68 67 68 63 47 42 38 40 41 41 40 38 35 24 20 25 29 21 22 23 27 29 33 28 24 26 28 28 29 30 31 31 33 34 38 36
43 55 66 71 56 67 78 72 69 63 55 53 59 60 58 53 50 42 43 43 42 43 44 45 47 48 43 37 36 34 30 31 33 32 30 32 39 43 35 35 37 36 36 37 38 39 38 40 38
38 49 64 57 66 58 70 82 71 74 66 59 59 59 60 52 43 42 42 43 42 45 47 49 50 51 49 48 47 47 45 44 41 39 39 41 44 47 53 44 42 42 43 44 43 43 46 46 39
43 39 52 58 50 49 51 71 73 73 66 56 51 53 54 55 50 43 41 41 44 49 53 53 53 55 56 56 57 55 52 50 52 51 50 45 45 48 49 51 49 47 45 46 49 48 49 54 51
48 37 40 41 54 73 52 81 71 72 67 58 50 51 52 46 39 38 40 44 46 47 45 45 47 48 49 50 53 54 56 57 56 58 56 57 54 48 45 45 44 48 50 51 50 50 52 54 58
41 32 30 35 47 56 60 69 64 57 65 60 52 44 39 39 39 40 42 43 40 40 42 43 44 45 47 48 48 51 51 54 55 58 62 58 55 49 42 41 43 45 46 45 47 50 52 54 59
26 22 25 34 49 78 67 66 66 60 62 53 41 35 35 35 33 35 37 34 33 37 42 44 46 49 51 50 49 49 52 53 54 56 59 61 60 57 52 44 41 43 45 48 51 55 55 58 59
29 19 43 57 68 81 60 68 72 52 49 42 36 30 30 28 29 28 31 36 38 39 42 46 49 49 47 48 50 52 52 51 51 54 55 56 55 54 58 57 54 48 47 47 50 51 54 58 59
18 26 35 58 62 64 53 68 65 61 48 31 26 27 26 26 25 30 33 36 37 39 43 45 46 45 47 49 51 50 49 50 52 54 53 53 54 54 57 57 57 56 48 43 45 50 53 59 62
38 34 32 39 45 53 58 60 51 37 32 31 29 28 29 30 30 31 33 34 36 39 42 42 42 44 47 48 49 49 50 52 53 51 52 54 56 56 57 56 58 59 56 46 47 48 55 55 57
35 33 40 39 49 57 55 59 60 41 36 35 35 34 34 31 30 31 33 36 38 37 38 39 41 43 45 45 45 46 47 47 48 49 52 55 56 55 55 55 54 54 54 52 51 50 51 54 52
32 35 39 39 39 50 52 56 46 44 37 35 36 36 32 31 31 32 34 38 39 35 36 39 42 43 44 44 43 44 46 48 49 51 53 53 51 52 53 50 50 52 52 54 52 48 49 53 50
34 25 26 36 38 44 46 53 47 33 30 29 32 28 30 30 32 35 38 39 37 36 37 40 41 42 42 42 42 44 46 47 49 51 52 52 51 50 50 49 49 51 51 52 51 48 47 44 46
Wind_Direction
270 269 272 266 250 251 244 247 256 253 257 262 271 277 278 274 271 266 296 54 97 99 100 98 93 85 75 68 67 59 51 39 32 29 28 31 32 39 47 51 55 64 56 48 43 41 42 43 46
270 269 266 255 245 240 241 251 254 261 260 267 265 264 272 269 280 289 323 87 94 105 103 100 98 85 76 71 64 57 45 38 34 34 39 40 41 44 55 55 59 64 52 46 44 43 43 41 42
270 264 255 247 242 236 239 270 247 258 264 268 260 267 272 268 293 306 344 99 86 104 107 95 89 83 79 73 66 60 48 42 41 43 44 46 41 48 57 58 64 60 53 49 45 46 45 44 44
261 259 256 243 238 236 245 269 251 253 260 265 268 263 278 273 278 300 90 102 86 96 102 98 88 89 82 76 71 63 54 48 43 44 48 52 49 50 53 58 59 56 53 49 50 52 50 46 44
255 253 244 241 238 238 254 258 256 258 255 256 266 260 269 287 330 354 109 102 91 92 100 95 93 91 88 81 72 62 55 51 46 46 52 53 53 53 56 58 57 56 52 51 53 53 49 45 42
238 249 241 237 238 242 254 258 255 254 255 254 270 262 271 291 310 310 10 103 92 96 91 88 98 89 81 70 57 56 57 49 45 48 51 55 55 55 57 57 58 54 53 54 55 52 48 45 41
231 236 237 239 240 243 251 253 254 250 255 258 274 257 263 277 285 286 358 90 86 84 77 76 91 84 78 63 54 58 58 48 50 47 51 50 52 58 59 59 59 57 55 55 54 49 45 41 39
233 233 236 237 235 241 255 255 252 248 254 265 270 259 250 261 287 297 316 46 81 70 66 75 82 67 62 54 54 49 48 43 50 47 52 54 58 60 62 65 61 57 59 59 55 49 44 39 38
238 231 229 231 235 235 270 267 252 253 249 270 268 263 257 264 275 281 301 314 1 43 66 73 72 44 49 50 55 55 52 47 44 45 53 58 61 61 65 71 67 62 61 58 56 47 41 37 38
230 230 229 232 229 244 268 262 258 249 246 256 263 268 269 279 270 266 268 277 291 313 354 65 58 66 94 46 60 45 34 28 36 47 51 61 70 73 67 73 68 63 62 59 52 41 37 33 31
230 227 232 235 234 251 266 254 251 254 251 250 252 252 255 268 274 272 270 273 284 294 300 294 14 66 83 6 31 3 355 11 43 66 66 90 84 73 62 58 47 47 50 49 44 35 28 29 23
231 231 232 239 242 247 249 252 245 252 257 268 255 248 255 261 267 271 274 276 274 283 289 302 305 323 351 16 14 6 3 18 73 98 93 105 97 98 58 40 29 20 12 19 13 8 10 11 12
233 235 236 238 240 242 249 251 244 249 263 268 262 254 261 266 271 274 279 282 283 281 284 289 297 307 310 325 338 349 21 43 38 161 163 112 92 162 23 356 353 348 339 331 333 338 344 337 341
241 242 241 248 240 244 245 248 250 249 263 261 259 261 265 269 275 278 278 284 284 283 288 284 288 296 309 309 307 316 280 289 301 276 199 190 319 254 279 312 319 319 311 313 308 310 316 321 323
252 235 244 245 239 244 249 248 244 253 261 260 260 263 265 268 272 273 281 283 284 283 285 295 286 273 290 303 307 306 309 308 268 276 283 240 271 300 284 295 305 296 298 297 297 298 304 303 303
243 235 233 238 239 249 246 246 253 255 255 255 261 262 264 267 269 271 275 281 291 289 281 283 285 289 277 281 300 296 304 311 310 300 302 280 287 294 293 295 295 301 287 291 299 304 300 296 295
237 233 232 236 241 248 248 249 255 260 255 254 257 261 264 265 268 270 272 278 282 286 294 298 282 282 290 296 287 292 281 293 303 307 302 288 276 279 284 289 290 292 297 286 285 292 296 296 297
231 235 235 238 242 247 248 249 257 263 258 255 257 261 265 266 267 274 276 281 286 291 293 295 295 293 292 292 297 297 287 281 280 293 298 304 297 279 278 286 288 291 290 290 290 286 289 294 291
243 243 241 243 252 247 248 252 255 258 262 260 259 262 266 270 275 276 278 282 288 291 292 293 292 293 298 300 297 294 287 286 291 288 284 291 301 304 289 286 290 288 286 285 286 289 285 286 290
251 246 244 250 245 246 251 250 254 255 260 262 263 264 266 271 278 279 280 285 289 290 293 294 293 293 296 298 299 302 300 296 293 293 291 293 296 296 304 294 288 289 286 287 285 284 289 287 283
256 250 252 246 244 254 256 255 253 255 260 265 266 267 268 269 272 276 282 288 293 293 293 295 294 293 294 295 295 296 301 302 302 300 300 296 296 298 296 295 297 292 289 286 285 284 282 286 284
252 261 267 240 241 244 254 253 258 254 257 259 263 267 269 270 274 279 284 290 294 297 300 301 300 301 301 302 299 298 298 300 302 303 305 302 300 300 300 302 297 295 296 292 290 289 285 286 283
257 262 264 249 249 249 252 256 262 256 255 258 262 268 270 272 275 279 286 291 296 299 300 303 304 304 306 306 307 305 307 305 306 305 302 306 308 306 301 300 301 303 303 299 295 294 290 286 286
268 257 265 265 258 250 252 253 262 255 256 258 262 264 267 272 279 284 290 295 298 300 300 301 302 301 303 307 310 311 310 310 311 312 310 307 307 310 310 305 303 303 304 306 305 302 298 295 290
252 245 256 254 250 248 257 252 258 263 261 256 255 263 270 274 279 286 290 293 296 300 303 303 303 306 312 311 311 312 313 314 314 313 314 316 315 313 314 315 313 312 309 308 308 306 304 300 294
233 251 264 254 253 254 259 254 260 266 257 256 254 263 266 274 280 286 291 295 298 302 306 308 310 313 315 314 312 314 316 315 314 315 316 317 317 317 316 317 320 319 318 317 314 312 310 308 302
250 256 275 275 269 260 257 261 267 269 254 246 254 259 266 273 280 289 295 299 303 307 310 313 316 316 316 316 316 317 316 315 315 319 320 319 318 318 320 322 320 322 322 322 321 318 318 316 313
262 266 267 275 265 259 261 259 258 255 253 250 255 263 270 273 283 292 300 304 307 310 315 317 317 316 317 318 319 319 321 324 324 324 321 319 321 324 324 326 327 326 329 332 330 328 327 322 321
262 266 269 271 278 264 262 261 271 260 255 254 260 266 268 275 284 293 301 307 309 312 315 317 316 316 316 317 320 322 324 325 326 322 323 327 330 331 332 336 334 334 336 337 338 338 334 327 326
269 274 269 269 274 272 270 265 278 275 257 260 265 269 273 279 286 294 299 304 308 310 314 316 317 315 315 319 322 324 326 326 323 325 328 330 331 335 336 338 339 341 343 344 344 345 343 341 337